TimeEST,TemperatureF,Dew PointF,Humidity,Sea Level PressureIn,VisibilityMPH,Wind Direction,Wind SpeedMPH,Gust SpeedMPH,PrecipitationIn,Events,Conditions,WindDirDegrees,DateUTC
12:15 AM,15.8,14.0,93,30.36,10.0,SE,4.6,-,N/A,,Mostly Cloudy,140,2013-01-27 05:15:00
12:35 AM,15.8,12.2,86,30.36,10.0,SE,3.5,-,N/A,,Mostly Cloudy,130,2013-01-27 05:35:00
12:55 AM,14.0,12.2,93,30.36,10.0,Calm,Calm,-,N/A,,Mostly Cloudy,0,2013-01-27 05:55:00
1:15 AM,15.8,12.2,86,30.36,10.0,Calm,Calm,-,N/A,,Overcast,0,2013-01-27 06:15:00
1:35 AM,14.0,12.2,93,30.36,10.0,East,3.5,-,N/A,,Overcast,90,2013-01-27 06:35:00
1:55 AM,14.0,12.2,93,30.35,10.0,East,5.8,-,N/A,,Overcast,100,2013-01-27 06:55:00
2:15 AM,14.0,12.2,93,30.35,10.0,East,6.9,-,N/A,,Overcast,100,2013-01-27 07:15:00
2:35 AM,14.0,12.2,93,30.36,10.0,ESE,6.9,-,N/A,,Overcast,110,2013-01-27 07:35:00
2:55 AM,14.0,12.2,93,30.35,10.0,ESE,9.2,-,N/A,,Overcast,120,2013-01-27 07:55:00
3:15 AM,14.0,12.2,93,30.35,10.0,East,8.1,-,N/A,,Overcast,100,2013-01-27 08:15:00
3:35 AM,14.0,12.2,93,30.34,10.0,East,6.9,-,N/A,,Overcast,100,2013-01-27 08:35:00
3:55 AM,14.0,12.2,93,30.34,10.0,East,6.9,-,N/A,,Overcast,100,2013-01-27 08:55:00
4:15 AM,14.0,12.2,93,30.34,10.0,East,5.8,-,N/A,,Overcast,100,2013-01-27 09:15:00
4:35 AM,14.0,12.2,93,30.34,10.0,ESE,5.8,-,N/A,,Overcast,110,2013-01-27 09:35:00
4:55 AM,15.8,12.2,86,30.34,10.0,ESE,5.8,-,N/A,,Overcast,110,2013-01-27 09:55:00
5:15 AM,15.8,14.0,93,30.33,10.0,ESE,6.9,-,N/A,,Overcast,110,2013-01-27 10:15:00
5:35 AM,15.8,14.0,93,30.31,10.0,East,8.1,-,N/A,,Overcast,90,2013-01-27 10:35:00
5:55 AM,15.8,15.8,100,30.32,10.0,East,6.9,-,N/A,,Overcast,100,2013-01-27 10:55:00
6:15 AM,15.8,15.8,100,30.31,10.0,SE,9.2,-,N/A,,Overcast,130,2013-01-27 11:15:00
6:35 AM,17.6,15.8,93,30.31,10.0,ESE,8.1,-,N/A,,Overcast,120,2013-01-27 11:35:00
6:55 AM,17.6,15.8,93,30.31,10.0,ESE,8.1,-,N/A,,Overcast,110,2013-01-27 11:55:00
7:15 AM,17.6,15.8,93,30.30,10.0,ESE,9.2,-,N/A,,Overcast,120,2013-01-27 12:15:00
7:35 AM,17.6,17.6,100,30.29,10.0,ESE,9.2,-,N/A,,Overcast,110,2013-01-27 12:35:00
7:55 AM,17.6,17.6,100,30.29,10.0,ESE,6.9,-,N/A,,Overcast,120,2013-01-27 12:55:00
8:15 AM,19.4,17.6,93,30.29,10.0,SE,6.9,-,N/A,,Overcast,130,2013-01-27 13:15:00
8:35 AM,19.4,17.6,93,30.29,10.0,SE,6.9,-,N/A,,Overcast,140,2013-01-27 13:35:00
8:55 AM,19.4,19.4,100,30.30,4.0,SE,6.9,-,N/A,,Overcast,140,2013-01-27 13:55:00
9:15 AM,21.2,21.2,100,30.30,3.0,SE,8.1,-,N/A,,Overcast,130,2013-01-27 14:15:00
9:35 AM,21.2,19.4,93,30.29,4.0,SE,8.1,-,N/A,,Overcast,140,2013-01-27 14:35:00
9:55 AM,23.0,21.2,93,30.28,3.0,SE,10.4,-,N/A,,Overcast,130,2013-01-27 14:55:00
10:15 AM,23.0,21.2,93,30.28,7.0,SSE,10.4,-,N/A,,Overcast,160,2013-01-27 15:15:00
10:35 AM,24.8,24.8,100,30.28,8.0,South,11.5,-,N/A,,Overcast,170,2013-01-27 15:35:00
10:55 AM,24.8,24.8,100,30.28,10.0,SSE,10.4,-,N/A,,Overcast,160,2013-01-27 15:55:00
11:15 AM,24.8,24.8,100,30.29,10.0,SSE,9.2,-,N/A,,Overcast,160,2013-01-27 16:15:00
11:35 AM,24.8,23.0,93,30.28,10.0,SSE,10.4,-,N/A,,Overcast,160,2013-01-27 16:35:00
11:55 AM,24.8,23.0,93,30.27,10.0,South,10.4,-,N/A,,Overcast,170,2013-01-27 16:55:00
12:15 PM,24.8,24.8,100,30.26,10.0,South,11.5,-,N/A,,Overcast,170,2013-01-27 17:15:00
12:35 PM,24.8,24.8,100,30.25,10.0,South,10.4,-,N/A,,Overcast,170,2013-01-27 17:35:00
12:55 PM,26.6,24.8,93,30.25,10.0,South,9.2,16.1,N/A,,Overcast,180,2013-01-27 17:55:00
1:15 PM,26.6,24.8,93,30.24,10.0,South,8.1,-,N/A,,Overcast,180,2013-01-27 18:15:00
1:35 PM,26.6,24.8,93,30.24,10.0,South,9.2,-,N/A,,Overcast,180,2013-01-27 18:35:00
1:55 PM,26.6,24.8,93,30.23,10.0,South,8.1,-,N/A,,Overcast,190,2013-01-27 18:55:00
2:15 PM,26.6,24.8,93,30.21,10.0,SSE,11.5,-,N/A,,Overcast,160,2013-01-27 19:15:00
2:35 PM,28.4,24.8,86,30.20,10.0,South,10.4,-,N/A,,Overcast,170,2013-01-27 19:35:00
2:55 PM,28.4,24.8,86,30.19,10.0,South,9.2,16.1,N/A,,Overcast,170,2013-01-27 19:55:00
3:15 PM,28.4,24.8,86,30.19,10.0,South,8.1,-,N/A,,Overcast,170,2013-01-27 20:15:00
3:35 PM,28.4,24.8,86,30.18,10.0,SSE,9.2,-,N/A,,Overcast,160,2013-01-27 20:35:00
3:55 PM,28.4,26.6,93,30.18,10.0,South,9.2,-,N/A,,Overcast,170,2013-01-27 20:55:00
4:15 PM,28.4,24.8,86,30.18,10.0,South,11.5,-,N/A,,Overcast,170,2013-01-27 21:15:00
4:35 PM,28.4,24.8,86,30.18,10.0,SSE,11.5,-,N/A,,Overcast,160,2013-01-27 21:35:00
4:55 PM,28.4,24.8,86,30.18,10.0,SSE,8.1,-,N/A,,Overcast,160,2013-01-27 21:55:00
5:15 PM,28.4,24.8,86,30.18,10.0,SSE,6.9,-,N/A,,Overcast,160,2013-01-27 22:15:00
5:35 PM,28.4,24.8,86,30.18,10.0,SSE,10.4,-,N/A,,Overcast,150,2013-01-27 22:35:00
5:55 PM,28.4,24.8,86,30.18,10.0,SSE,6.9,-,N/A,,Overcast,150,2013-01-27 22:55:00
6:15 PM,26.6,24.8,93,30.19,10.0,SSE,5.8,-,N/A,,Mostly Cloudy,160,2013-01-27 23:15:00
6:35 PM,26.6,24.8,93,30.19,10.0,SSE,6.9,-,N/A,,Overcast,150,2013-01-27 23:35:00
6:55 PM,26.6,23.0,86,30.18,10.0,SE,8.1,-,N/A,,Overcast,130,2013-01-27 23:55:00
7:15 PM,24.8,23.0,93,30.18,10.0,SSE,9.2,-,N/A,,Mostly Cloudy,150,2013-01-28 00:15:00
7:35 PM,24.8,23.0,93,30.17,10.0,SE,9.2,-,N/A,,Mostly Cloudy,140,2013-01-28 00:35:00
7:55 PM,24.8,23.0,93,30.17,10.0,SSE,8.1,-,N/A,,Overcast,150,2013-01-28 00:55:00
8:15 PM,26.6,24.8,93,30.16,10.0,SE,9.2,-,N/A,,Overcast,130,2013-01-28 01:15:00
8:35 PM,26.6,24.8,93,30.16,10.0,ESE,8.1,-,N/A,,Overcast,120,2013-01-28 01:35:00
8:55 PM,26.6,24.8,93,30.16,10.0,SE,9.2,-,N/A,,Overcast,130,2013-01-28 01:55:00
9:15 PM,26.6,24.8,93,30.15,10.0,SE,9.2,-,N/A,,Overcast,140,2013-01-28 02:15:00
9:35 PM,28.4,24.8,86,30.14,10.0,ESE,9.2,-,N/A,,Overcast,120,2013-01-28 02:35:00
9:55 PM,28.4,24.8,86,30.13,10.0,ESE,9.2,-,N/A,,Overcast,120,2013-01-28 02:55:00
10:15 PM,26.6,24.8,93,30.12,4.0,SE,12.7,-,N/A,,Overcast,130,2013-01-28 03:15:00
10:35 PM,26.6,24.8,93,30.11,5.0,ESE,9.2,-,N/A,,Overcast,120,2013-01-28 03:35:00
10:55 PM,26.6,26.6,100,30.10,8.0,ESE,11.5,-,N/A,,Overcast,120,2013-01-28 03:55:00
11:15 PM,26.6,26.6,100,30.08,2.5,ESE,10.4,-,N/A,,Overcast,120,2013-01-28 04:15:00
11:35 PM,28.4,26.6,93,30.08,2.5,ESE,12.7,-,N/A,,Overcast,120,2013-01-28 04:35:00
11:55 PM,28.4,26.6,93,30.08,3.0,ESE,11.5,-,N/A,,Overcast,120,2013-01-28 04:55:00